Zurück zum Katalog

ONEWEB-0188

AktivKommunikationPO
NORAD 48231·PAYLOAD·🇬🇧 United Kingdom

Gestartet Apr 25, 2021 von Vostochny Cosmodrome

Loading…

Nächste Überflüge (nächste 24 Stunden)

TLE

AktuellSource: CelesTrak SupGP

Epoche: Sep 14, 2026, 15:52 UTC

1 48231C 21031X   26257.66126574 -.00001037  00000+0 -28003-2 0  2578
2 48231  87.8895 271.8743 0001904  93.3494 327.5186 13.14503871    19

Verfolge ONEWEB-0188 in Echtzeit mit AllMySat

Download on the App Store